Volver al catálogo

CZ-4 DEB

ActivoSSO
NORAD 20973·DEBRIS·🇨🇳 China

Lanzado Sep 3, 1990 desde Taiyuan Satellite Launch Center

Loading…

Próximos Pases (próximas 24 horas)

TLE

ActualizadoSource: Space-Track

Época: Sep 14, 2026, 20:55 UTC

1 20973U 90081CF  26257.87160363  .00002829  00000-0  50457-3 0  9990
2 20973  98.1492 313.1532 0031896 257.2991 159.8965 14.67480840883695

Sigue CZ-4 DEB en tiempo real con AllMySat

Download on the App Store